Flag Weather past 2 weeks in Dublin, Ireland

Now
61 °F

Partly cloudy.


Feels Like: 61 °F
Forecast: 56 / 63 °F
Wind: 13 mph from South

Location: Dublin Airport

Current Time: Oct 31, 2014 at 5:09:23 AM

Latest Report: Oct 31, 2014 at 4:30 AM


Visibility: N/A

Pressure: 29.74 "Hg

Humidity: 83%

Dew point: 55 °F

Location of DublinLocation

Historic Weather in Dublin — Graph

°F

Dublin temperature yesterday

Maximum temperature yesterday: 63 °F (at 11:00 AM)
Minimum temperature yesterday: 54 °F (at 4:30 AM)
Average temperature yesterday: 59 °F

Past Weeks' High & Low Weather Summary

 TemperatureHumidityPressure
High64 °F (Oct 18, 1:30 PM)100% (Oct 16, 5:00 AM)30.24 "Hg (Oct 16, 5:00 AM)
Low32 °F (Oct 29, 3:30 AM)50% (Oct 21, 4:30 PM)29.36 "Hg (Oct 17, 9:30 PM)
Average54 °F83%29.78 "Hg
* Reported Oct 16 5:00 AM — Oct 31 4:00 AM, Dublin, Weather by CustomWeather, © 2014

Note: Actual official high and low records may vary slightly from our data, if they occured in-between our weather recording intervals... More about our weather records

Advertising

Dublin weather history for previous 24 hours

 ConditionsComfort  
Time TempWeatherWind HumidityBarometerVisibility
4:00 AM
Oct 31
61 °FPartly cloudy.13 mph83%29.74 "HgN/A
3:30 AM61 °FPartly cloudy.12 mph83%29.74 "HgN/A
3:00 AM61 °FPartly cloudy.14 mph83%29.77 "HgN/A
2:30 AM61 °FPartly cloudy.15 mph83%29.77 "HgN/A
2:00 AM61 °FPassing clouds.17 mph83%29.77 "HgN/A
1:30 AM61 °FPassing clouds.15 mph83%29.77 "HgN/A
1:00 AM61 °FPassing clouds.15 mph83%29.77 "HgN/A
12:30 AM61 °FPassing clouds.14 mph83%29.80 "HgN/A
12:00 AM61 °FPassing clouds.9 mph77%29.80 "HgN/A
11:30 PM
Oct 30
61 °FPartly cloudy.10 mph77%29.80 "HgN/A
11:00 PM61 °FPartly cloudy.8 mph77%29.80 "HgN/A
10:30 PM61 °FPartly cloudy.9 mph77%29.80 "HgN/A
10:00 PM61 °FPartly cloudy.10 mph77%29.80 "HgN/A
9:30 PM61 °FPartly cloudy.17 mph77%29.83 "HgN/A
9:00 PM61 °FPartly cloudy.14 mph77%29.83 "HgN/A
8:30 PM59 °FPartly cloudy.13 mph82%29.83 "HgN/A
8:00 PM59 °FPartly cloudy.13 mph82%29.83 "HgN/A
7:30 PM61 °FPassing clouds.8 mph77%29.83 "HgN/A
7:00 PM61 °FPassing clouds.10 mph77%29.83 "HgN/A
6:30 PM61 °FPartly cloudy.9 mph77%29.83 "HgN/A
6:00 PM59 °FPartly cloudy.9 mph88%29.83 "HgN/A
5:30 PM61 °FPartly cloudy.9 mph83%29.83 "HgN/A
5:00 PM61 °FPartly cloudy.10 mph83%29.83 "HgN/A
4:30 PM63 °FBroken clouds.9 mph77%29.83 "HgN/A
4:00 PM63 °FPartly sunny.10 mph77%29.83 "HgN/A
3:30 PM61 °FBroken clouds.9 mph88%29.80 "HgN/A
3:00 PM61 °FBroken clouds.9 mph83%29.83 "HgN/A
2:30 PM61 °FPartly sunny.12 mph83%29.83 "HgN/A
2:00 PM63 °FBroken clouds.8 mph77%29.83 "HgN/A
1:30 PM63 °FBroken clouds.10 mph77%29.86 "HgN/A
1:00 PM61 °FBroken clouds.13 mph77%29.86 "HgN/A
12:30 PM61 °FBroken clouds.12 mph83%29.86 "HgN/A
12:00 PM61 °FPartly sunny.16 mph83%29.86 "HgN/A
11:30 AM63 °FBroken clouds.8 mph77%29.86 "HgN/A
11:00 AM63 °FBroken clouds.9 mph77%29.86 "HgN/A
10:30 AM61 °FPartly sunny.6 mph83%29.86 "HgN/A
10:00 AM59 °FBroken clouds.8 mph88%29.86 "HgN/A
9:30 AM59 °FPartly sunny.9 mph82%29.86 "HgN/A
9:00 AM59 °FPartly sunny.9 mph82%29.86 "HgN/A
8:30 AM59 °FPartly sunny.5 mph82%29.86 "HgN/A
8:00 AM59 °FPartly sunny.5 mph88%29.83 "HgN/A
7:30 AM57 °FScattered clouds.5 mph94%29.83 "HgN/A
7:00 AM57 °FPassing clouds.5 mph94%29.83 "HgN/A
6:30 AM57 °FPassing clouds.6 mph94%29.83 "HgN/A
6:00 AM57 °FPassing clouds.6 mph94%29.83 "HgN/A
5:30 AM55 °FPartly cloudy.7 mph100%29.83 "HgN/A
5:00 AM54 °FPartly cloudy.7 mph94%29.80 "HgN/A
Weather by CustomWeather, © 2014

See weather overviewHow to use our weather pages